Starlink 35241

operational
NORAD ID: 65515 Int'l Des: 2025-198 Owner: SPXS Country: US Constellation: starlink
LEOCIRCULAR

About Starlink 35241

Description loading...

Live Position

Loading 3D Globe...

Upcoming Passes

Altitude History

Altitude vs Time

uPlot chart will show altitude changes over time

Two-Line Element Set

1 65515U 25198Z 25310.87701267 .00040008 00000-0 10024-2 0 9997
2 65515 53.1554 127.3543 0002561 68.7071 291.4207 15.39694492 9731
Epoch: Nov 6, 2025 • Age: 19 hours

Current Status

Altitude 447.5 km
Velocity 7.65 km/s
Sub-Earth Point -1.88°S, 160.8°W
Launch Date Sep 5, 2025
Age 0.1 years
Type internet

Technical Details

Classification Payload
Mass 575.00 kg
Dry Mass 530.00 kg
Total Mass 575.00 kg
Length 0.30 m
Diameter 4.10 m
Span 29.00 m
Shape Box + pan
Manufacturer SPXS
Bus Type Starlink V2MO
Phase Status In Orbit
Owner/State SPXS/US

Large Constellations

Loading constellations...